FW3873 Weather Reports


time (UTC)temp
C
wind
direction
speed
KPH
gust
KPH
rain 1hr
cm
rain 24hr
cm
rain mn
cm
humidity
%
barometer
mb
20260505153150 23 243 11.3 29.0 0.00 0.00 0.00 46 1019.3
20260505152652 23 252 6.4 20.9 0.00 0.00 0.00 49 1019.3
20260505152153 23 229 4.8 22.5 0.00 0.00 0.00 49 1019.3
20260505151929 22 192 3.2 22.5 0.00 0.00 0.00 49 1019.3
20260505151424 23 220 1.6 12.9 0.00 0.00 0.00 52 1019.5
20260505150645 22 206 0.0 11.3 0.00 0.00 0.00 52 1019.1
20260505150146 22 167 0.0 8.0 0.00 0.00 0.00 57 1019.1
20260505140637 20 344 0.0 0.0 0.00 0.00 0.00 64 1019.1
20260505140131 20 335 0.0 0.0 0.00 0.00 0.00 64 1018.9
20260505124539 13 75 0.0 0.0 0.00 0.00 0.00 85 1018.6
20260505124037 13 75 0.0 0.0 0.00 0.00 0.00 86 1018.6
20260505123536 12 75 0.0 0.0 0.00 0.00 0.00 88 1018.5
20260505123035 12 76 0.0 0.0 0.00 0.00 0.00 88 1018.4
20260505122531 11 76 0.0 0.0 0.00 0.00 0.00 89 1018.5
20260505122323 11 205 0.0 0.0 0.00 0.00 0.00 88 1018.3
20260505121530 11 206 0.0 0.0 0.00 0.00 0.00 88 1018.2
20260505121032 10 205 0.0 0.0 0.00 0.00 0.00 89 1018.3
20260505120529 10 205 0.0 0.0 0.00 0.00 0.00 89 1018.2
20260505120031 10 205 0.0 0.0 0.00 0.00 0.00 89 1018.3
20260505115529 10 205 0.0 0.0 0.00 0.00 0.00 89 1018.3
20260505115030 10 205 0.0 0.0 0.00 0.00 0.00 89 1018.3
20260505114529 10 206 0.0 0.0 0.00 0.00 0.00 89 1018.2
20260505114029 10 205 0.0 0.0 0.00 0.00 0.00 89 1018.0
20260505113529 9 205 0.0 0.0 0.00 0.00 0.00 89 1017.9
20260505113030 9 205 0.0 0.0 0.00 0.00 0.00 89 1017.9
20260505112528 8 205 0.0 0.0 0.00 0.00 0.00 89 1017.7
20260505112029 8 205 0.0 0.0 0.00 0.00 0.00 89 1017.8
20260505111525 8 205 0.0 0.0 0.00 0.00 0.00 89 1017.8
20260505111024 8 206 0.0 0.0 0.00 0.00 0.00 89 1017.7
20260505110525 8 206 0.0 0.0 0.00 0.00 0.00 89 1017.8
20260505102007 8 206 0.0 0.0 0.00 0.00 0.00 88 1017.6
20260505101507 8 206 0.0 0.0 0.00 0.00 0.00 88 1017.6
20260505101003 8 206 0.0 0.0 0.00 0.00 0.00 88 1017.6
20260505100502 8 206 0.0 0.0 0.00 0.00 0.00 87 1017.7
20260505100004 8 206 0.0 0.0 0.00 0.00 0.00 88 1017.7
20260505095503 9 206 0.0 0.0 0.00 0.00 0.00 88 1017.8
20260505095005 9 206 0.0 0.0 0.00 0.00 0.00 88 1017.8
20260505094504 9 206 0.0 0.0 0.00 0.00 0.00 88 1017.8
20260505094003 9 206 0.0 0.0 0.00 0.00 0.00 88 1017.8
20260505093457 9 206 0.0 0.0 0.00 0.00 0.00 88 1017.7
20260505092955 9 206 0.0 0.0 0.00 0.00 0.00 89 1017.7
20260505092454 8 206 0.0 0.0 0.00 0.00 0.00 89 1017.4
20260505092414 8 206 0.0 0.0 0.00 0.00 0.00 89 1017.6
20260505092338 8 206 0.0 0.0 0.00 0.00 0.00 89 1017.6
20260505090954 8 206 0.0 0.0 0.00 0.00 0.00 89 1017.7
20260505090453 8 206 0.0 0.0 0.00 0.00 0.00 88 1017.7
20260505085953 8 206 0.0 0.0 0.00 0.00 0.00 88 1017.8
20260505085453 8 206 0.0 0.0 0.00 0.00 0.00 88 1017.8
20260505084953 8 206 0.0 0.0 0.00 0.00 0.00 88 1017.9
20260505084450 8 206 0.0 0.0 0.00 0.00 0.00 88 1017.9
20260505083951 8 206 0.0 0.0 0.00 0.00 0.00 88 1018.0
20260505083735 8 206 0.0 0.0 0.00 0.00 0.00 88 1018.1
20260505082953 8 206 0.0 0.0 0.00 0.00 0.00 87 1018.0
20260505082732 8 206 0.0 0.0 0.00 0.00 0.00 87 1017.9
20260505081949 8 206 0.0 0.0 0.00 0.00 0.00 87 1017.8
20260505081451 9 206 0.0 0.0 0.00 0.00 0.00 87 1017.9
20260505080945 8 206 0.0 0.0 0.00 0.00 0.00 87 1017.8
20260505080544 9 206 0.0 0.0 0.00 0.00 0.00 87 1017.9
20260505080452 8 206 0.0 0.0 0.00 0.00 0.00 87 1017.8
20260505075715 9 206 0.0 0.0 0.00 0.00 0.00 87 1017.9
20260505074933 9 206 0.0 0.0 0.00 0.00 0.00 86 1017.8
20260505074430 9 206 0.0 0.0 0.00 0.00 0.00 86 1017.9
20260505073931 9 206 0.0 0.0 0.00 0.00 0.00 86 1017.9
20260505073432 9 206 0.0 0.0 0.00 0.00 0.00 86 1017.8
20260505072929 9 206 0.0 0.0 0.00 0.00 0.00 86 1017.9
20260505072547 9 206 0.0 0.0 0.00 0.00 0.00 85 1017.9
20260505072445 9 206 0.0 0.0 0.00 0.00 0.00 85 1017.8
20260505071431 10 206 0.0 0.0 0.00 0.00 0.00 85 1017.9
20260505070926 10 206 0.0 0.0 0.00 0.00 0.00 85 1017.9
20260505070427 10 206 0.0 0.0 0.00 0.00 0.00 85 1017.8
20260505065926 10 206 0.0 0.0 0.00 0.00 0.00 84 1017.9
20260505065706 10 206 0.0 0.0 0.00 0.00 0.00 84 1017.9
20260505065215 10 206 0.0 0.0 0.00 0.00 0.00 84 1017.8
20260505064427 10 206 0.0 0.0 0.00 0.00 0.00 83 1017.8
20260505063925 10 206 0.0 0.0 0.00 0.00 0.00 84 1017.8
20260505063424 10 206 0.0 0.0 0.00 0.00 0.00 83 1017.9
20260505062926 10 206 0.0 0.0 0.00 0.00 0.00 82 1018.0
20260505062427 10 206 0.0 0.0 0.00 0.00 0.00 82 1018.0
20260505061924 10 206 0.0 0.0 0.00 0.00 0.00 81 1018.0
20260505061712 10 206 0.0 0.0 0.00 0.00 0.00 81 1018.1
20260505060927 11 206 0.0 0.0 0.00 0.00 0.00 80 1018.0
20260505060425 11 206 0.0 0.0 0.00 0.00 0.00 80 1018.0
20260505055925 11 206 0.0 0.0 0.00 0.00 0.00 80 1017.9
20260505055426 11 206 0.0 0.0 0.00 0.00 0.00 80 1018.0
20260505054933 11 206 0.0 0.0 0.00 0.00 0.00 80 1018.0
20260505054431 11 206 0.0 0.0 0.00 0.00 0.00 80 1017.9
20260505053928 11 206 0.0 0.0 0.00 0.00 0.00 79 1018.1
20260505053655 11 206 0.0 0.0 0.00 0.00 0.00 79 1018.1
20260505052920 11 206 0.0 0.0 0.00 0.00 0.00 79 1018.1
20260505052417 12 206 0.0 0.0 0.00 0.00 0.00 79 1018.1
20260505051914 12 206 0.0 0.0 0.00 0.00 0.00 79 1018.1
20260505051415 12 206 0.0 0.0 0.00 0.00 0.00 78 1018.1
20260505050911 12 206 0.0 0.0 0.00 0.00 0.00 78 1018.2
20260505050409 12 206 0.0 0.0 0.00 0.00 0.00 77 1018.2
20260505041638 13 206 0.0 0.0 0.00 0.00 0.00 67 1017.9
20260505040902 14 206 0.0 0.0 0.00 0.00 0.00 65 1018.0
20260505040400 15 206 0.0 0.0 0.00 0.00 0.00 65 1018.1
20260505035902 15 206 0.0 0.0 0.00 0.00 0.00 65 1018.0
20260505035400 15 206 0.0 0.0 0.00 0.00 0.00 63 1018.0
20260505034859 15 206 0.0 0.0 0.00 0.00 0.00 64 1017.9
20260505034636 15 206 0.0 0.0 0.00 0.00 0.00 64 1018.1
20260505033856 14 205 0.0 0.0 0.00 0.00 0.00 68 1018.1
20260505033355 13 205 0.0 0.0 0.00 0.00 0.00 71 1018.1
20260505033141 13 205 0.0 0.0 0.00 0.00 0.00 73 1018.1
20260505032351 12 205 0.0 0.0 0.00 0.00 0.00 73 1018.1
20260505031852 12 205 0.0 0.0 0.00 0.00 0.00 73 1018.1
20260505031349 13 205 0.0 0.0 0.00 0.00 0.00 72 1018.1
20260505030849 13 205 0.0 0.0 0.00 0.00 0.00 71 1018.1
20260505030347 13 205 0.0 0.0 0.00 0.00 0.00 70 1018.2
20260505025845 13 205 0.0 0.0 0.00 0.00 0.00 70 1018.2
20260505025343 13 205 0.0 0.0 0.00 0.00 0.00 70 1018.2
20260505024839 13 205 0.0 0.0 0.00 0.00 0.00 68 1018.2
20260505024337 14 205 0.0 0.0 0.00 0.00 0.00 67 1018.2
20260505023835 14 205 0.0 0.0 0.00 0.00 0.00 66 1018.1
20260505023333 15 205 0.0 0.0 0.00 0.00 0.00 63 1018.0
20260505022831 15 205 0.0 0.0 0.00 0.00 0.00 63 1017.9
20260505022330 15 205 0.0 0.0 0.00 0.00 0.00 64 1017.9
20260505021829 15 205 0.0 0.0 0.00 0.00 0.00 65 1017.9
20260505021331 15 205 0.0 0.0 0.00 0.00 0.00 64 1017.9
20260505021121 15 205 0.0 0.0 0.00 0.00 0.00 64 1017.9
20260505020443 16 205 0.0 0.0 0.00 0.00 0.00 59 1017.9
20260505020350 15 205 0.0 0.0 0.00 0.00 0.00 62 1017.9
20260505015327 16 205 0.0 0.0 0.00 0.00 0.00 57 1017.9
20260505015107 16 205 0.0 0.0 0.00 0.00 0.00 58 1017.9
20260505014325 16 205 0.0 0.0 0.00 0.00 0.00 60 1017.7
20260505013823 16 205 0.0 0.0 0.00 0.00 0.00 61 1017.7
20260505013322 16 205 0.0 0.0 0.00 0.00 0.00 61 1017.6
20260505012819 16 205 0.0 0.0 0.00 0.00 0.00 58 1017.7
20260505012556 16 205 0.0 0.0 0.00 0.00 0.00 59 1017.6
20260505012134 16 205 0.0 0.0 0.00 0.00 0.00 58 1017.6
20260505011319 16 205 0.0 0.0 0.00 0.00 0.00 57 1017.5
20260505010818 17 205 0.0 0.0 0.00 0.00 0.00 57 1017.5
20260505010317 17 205 0.0 0.0 0.00 0.00 0.00 57 1017.5
20260505005817 17 205 0.0 0.0 0.00 0.00 0.00 55 1017.5
20260505005317 18 205 0.0 0.0 0.00 0.00 0.00 52 1017.4
20260505004817 18 205 0.0 0.0 0.00 0.00 0.00 52 1017.4
20260505004557 18 205 0.0 0.0 0.00 0.00 0.00 51 1017.3
20260505003816 19 205 0.0 0.0 0.00 0.00 0.00 51 1017.3
20260505003458 20 205 0.0 0.0 0.00 0.00 0.00 48 1017.2
20260505003356 20 205 0.0 0.0 0.00 0.00 0.00 49 1017.2
20260505002315 20 205 0.0 0.0 0.00 0.00 0.00 47 1017.2
20260505002107 21 205 0.0 0.0 0.00 0.00 0.00 47 1017.2
20260505001314 21 205 0.0 0.0 0.00 0.00 0.00 43 1017.2
20260505000812 21 205 0.0 0.0 0.00 0.00 0.00 42 1017.2
20260505000313 22 205 0.0 0.0 0.00 0.00 0.00 40 1017.2
20260505000059 22 198 0.0 6.4 0.00 0.00 0.00 39 1017.2
20260504235310 22 211 0.0 6.4 0.00 0.00 0.00 39 1017.2
20260504234810 22 200 0.0 9.7 0.00 0.00 0.00 38 1017.2
20260504234309 23 203 1.6 9.7 0.00 0.00 0.00 39 1017.1
20260504233808 23 204 0.0 9.7 0.00 0.00 0.00 39 1017.1
20260504233308 23 231 1.6 6.4 0.00 0.00 0.00 38 1017.0
20260504232808 23 195 1.6 6.4 0.00 0.00 0.00 39 1017.1
20260504232424 23 223 1.6 8.0 0.00 0.00 0.00 37 1017.0
20260504232329 23 198 0.0 6.4 0.00 0.00 0.00 38 1017.1
20260504231305 23 214 1.6 14.5 0.00 0.00 0.00 37 1017.1
20260504230806 23 261 4.8 16.1 0.00 0.00 0.00 36 1016.9
20260504230306 23 198 4.8 16.1 0.00 0.00 0.00 34 1017.0
20260504225804 24 215 4.8 12.9 0.00 0.00 0.00 34 1017.0
20260504225543 24 221 6.4 16.1 0.00 0.00 0.00 34 1017.1
20260504224804 24 221 6.4 16.1 0.00 0.00 0.00 32 1017.2
20260504224303 24 225 3.2 12.9 0.00 0.00 0.00 36 1017.2
20260504223802 24 152 1.6 11.3 0.00 0.00 0.00 37 1017.2
20260504223535 24 211 4.8 17.7 0.00 0.00 0.00 36 1017.2
20260504222802 24 197 4.8 19.3 0.00 0.00 0.00 37 1017.2
20260504222301 25 178 4.8 19.3 0.00 0.00 0.00 36 1017.2
20260504221800 25 225 6.4 14.5 0.00 0.00 0.00 39 1017.3
20260504221538 25 218 3.2 14.5 0.00 0.00 0.00 37 1017.2
20260504220750 25 225 3.2 16.1 0.00 0.00 0.00 38 1017.2
20260504220244 25 231 1.6 16.1 0.00 0.00 0.00 37 1017.1
20260504215739 25 178 1.6 12.9 0.00 0.00 0.00 38 1017.2
20260504215238 24 203 3.2 14.5 0.00 0.00 0.00 39 1017.2
20260504214738 24 157 3.2 14.5 0.00 0.00 0.00 40 1017.3
20260504214508 24 157 4.8 14.5 0.00 0.00 0.00 39 1017.2
20260504213736 24 169 8.0 17.7 0.00 0.00 0.00 40 1017.3
20260504213235 24 217 6.4 17.7 0.00 0.00 0.00 38 1017.3
20260504212734 25 212 3.2 12.9 0.00 0.00 0.00 39 1017.2
20260504212231 25 200 1.6 11.3 0.00 0.00 0.00 37 1017.0
20260504211730 24 192 3.2 16.1 0.00 0.00 0.00 36 1017.1
20260504211229 25 241 3.2 16.1 0.00 0.00 0.00 37 1017.1
20260504211035 25 213 0.0 8.0 0.00 0.00 0.00 37 1017.2
20260504210230 25 317 0.0 1.6 0.00 0.00 0.00 37 1017.3
20260504205730 25 231 0.0 8.0 0.00 0.00 0.00 35 1017.3
20260504205231 25 171 0.0 8.0 0.00 0.00 0.00 36 1017.3
20260504204731 25 224 3.2 12.9 0.00 0.00 0.00 36 1017.3
20260504204232 25 214 6.4 14.5 0.00 0.00 0.00 36 1017.3
20260504203728 25 249 3.2 14.5 0.00 0.00 0.00 36 1017.5
20260504203229 25 286 0.0 11.3 0.00 0.00 0.00 36 1017.4
20260504202729 25 223 0.0 0.0 0.00 0.00 0.00 37 1017.5
20260504202224 25 325 0.0 0.0 0.00 0.00 0.00 37 1017.5
20260504202007 25 228 0.0 0.0 0.00 0.00 0.00 40 1017.5
20260504201216 25 229 0.0 0.0 0.00 0.00 0.00 37 1017.6
20260504200716 25 220 0.0 3.2 0.00 0.00 0.00 35 1017.6
20260504200214 25 246 0.0 9.7 0.00 0.00 0.00 35 1017.7
20260504195710 25 209 1.6 9.7 0.00 0.00 0.00 37 1017.7
20260504195209 25 221 3.2 11.3 0.00 0.00 0.00 38 1017.8
20260504194708 25 315 3.2 12.9 0.00 0.00 0.00 39 1017.8
20260504194453 25 223 1.6 12.9 0.00 0.00 0.00 37 1017.9
20260504193708 24 210 1.6 12.9 0.00 0.00 0.00 39 1017.9
20260504193208 25 261 1.6 12.9 0.00 0.00 0.00 37 1017.9
20260504192708 25 231 0.0 9.7 0.00 0.00 0.00 39 1018.0
20260504192208 25 244 0.0 4.8 0.00 0.00 0.00 38 1017.9
20260504191708 25 198 0.0 6.4 0.00 0.00 0.00 44 1018.1
20260504191503 25 259 1.6 12.9 0.00 0.00 0.00 47 1018.1
20260504190707 24 281 4.8 12.9 0.00 0.00 0.00 43 1018.3
20260504190204 24 242 6.4 16.1 0.00 0.00 0.00 41 1018.4
20260504185704 25 247 3.2 16.1 0.00 0.00 0.00 40 1018.5
20260504185204 25 269 3.2 12.9 0.00 0.00 0.00 40 1018.5
20260504184702 24 272 4.8 14.5 0.00 0.00 0.00 40 1018.6
20260504184201 25 229 1.6 9.7 0.00 0.00 0.00 40 1018.8
20260504183658 25 355 1.6 11.3 0.00 0.00 0.00 38 1018.8
20260504183153 24 272 1.6 11.3 0.00 0.00 0.00 39 1018.7
20260504182646 24 0 4.8 14.5 0.00 0.00 0.00 42 1018.8
20260504182141 24 272 4.8 14.5 0.00 0.00 0.00 39 1018.9
20260504181635 23 25 1.6 8.0 0.00 0.00 0.00 38 1018.9
20260504181133 24 234 1.6 8.0 0.00 0.00 0.00 43 1019.0
20260504180634 23 243 3.2 11.3 0.00 0.00 0.00 39 1019.2
20260504180133 23 282 4.8 11.3 0.00 0.00 0.00 40 1019.3
20260504175631 25 261 4.8 11.3 0.00 0.00 0.00 40 1019.3
20260504175410 25 205 4.8 11.3 0.00 0.00 0.00 42 1019.5
20260504174629 24 288 4.8 12.9 0.00 0.00 0.00 45 1019.6
20260504174130 23 174 6.4 12.9 0.00 0.00 0.00 42 1019.6
20260504173628 23 160 4.8 11.3 0.00 0.00 0.00 44 1019.7
20260504173129 23 236 4.8 11.3 0.00 0.00 0.00 45 1019.7
20260504172628 23 272 4.8 14.5 0.00 0.00 0.00 41 1019.9
20260504172130 23 237 4.8 14.5 0.00 0.00 0.00 42 1019.9
20260504171914 22 212 4.8 11.3 0.00 0.00 0.00 41 1019.9
20260504171129 22 264 3.2 6.4 0.00 0.00 0.00 42 1019.9
20260504170628 22 257 4.8 12.9 0.00 0.00 0.00 43 1020.1
20260504170131 22 258 6.4 12.9 0.00 0.00 0.00 42 1020.2
20260504160120 21 259 4.8 11.3 0.00 0.00 0.00 47 1020.7